This is the latest recevied weather packets stored in our database for station/object OE6JUE. If no packets are shown the sender has not sent any weather packets the latest 10 day(s).
| Time | Temp. | Humidity | Pressure | Rain* | Wind** | Luminosity | Snow |
|---|---|---|---|---|---|---|---|
| 1777552803 | 16.11° C | 22% | 1027.7 hPa | 0 mm | - | - | - |
| 1777552504 | 15.56° C | 22% | 1027.7 hPa | 0 mm | - | - | - |
| 1777552204 | 16.11° C | 22% | 1027.8 hPa | 0 mm | - | - | - |
| 1777551903 | 16.67° C | 22% | 1027.8 hPa | 0 mm | - | - | - |
| 1777551603 | 16.11° C | 22% | 1027.9 hPa | 0 mm | - | - | - |
| 1777551303 | 16.11° C | 22% | 1027.9 hPa | 0 mm | - | - | - |
| 1777551003 | 16.11° C | 22% | 1027.8 hPa | 0 mm | - | - | - |
| 1777550703 | 15.56° C | 22% | 1028.1 hPa | 0 mm | - | - | - |
| 1777550403 | 15.56° C | 22% | 1028.1 hPa | - | - | - | - |
| 1777550103 | 15.56° C | 22% | 1028.1 hPa | 0 mm | - | - | - |
| 1777549803 | 15.56° C | 22% | 1028.3 hPa | 0 mm | - | - | - |
| 1777549503 | 15.56° C | 22% | 1028.1 hPa | 0 mm | - | - | - |
| 1777549203 | 15° C | 22% | 1028.2 hPa | 0 mm | - | - | - |
| 1777548903 | 15.56° C | 22% | 1028.2 hPa | 0 mm | - | - | - |
| 1777548603 | 15° C | 22% | 1028.2 hPa | 0 mm | - | - | - |
| 1777548303 | 15° C | 22% | 1028.2 hPa | 0 mm | - | - | - |
| 1777548003 | 14.44° C | 22% | 1028.3 hPa | 0 mm | - | - | - |
| 1777547703 | 15° C | 22% | 1028.3 hPa | 0 mm | - | - | - |
| 1777547403 | 15° C | 22% | 1028.4 hPa | 0 mm | - | - | - |
| 1777547104 | 14.44° C | 22% | 1028.5 hPa | 0 mm | - | - | - |
| 1777546803 | 15° C | 22% | 1028.4 hPa | - | - | - | - |
| 1777546503 | 15° C | 22% | 1028.5 hPa | 0 mm | - | - | - |
| 1777546203 | 14.44° C | 22% | 1028.5 hPa | 0 mm | - | - | - |
| 1777545903 | 14.44° C | 22% | 1028.5 hPa | 0 mm | - | - | - |
| 1777545603 | 13.89° C | 22% | 1028.8 hPa | 0 mm | - | - | - |
* Rain latest hour (hover to see other rain measurements)
** Current wind speed in m/s (hover to see current wind gust speed)